Filtrer par Nom Sexe Groupe d'age
Prix des Rousses 2018
RG. DOS. TEMPS CAT RG. POINTS
1 10 GALLEGO MIKAEL 01:36:54 Hom 1 0.00 LA MOTTE D AVEILLANS, FRANCE
2 179 NIJSSEN KENNY 01:38:17 Hom 2 0.00 Haarlem, Pays-Bas
3 80 KNEPPERS PAUL 01:39:00 Hom 3 0.00 DELFT, Pays-bas
4 132 DEBERTIN DANIEL 01:41:41 Hom 4 0.00 KARLSRUHE, Allemagne
5 8024 ALLEMAN TIM 01:41:44 Hom 5 0.00 Bredene, Belgique
6 8013 WIJNJA JELLE 01:42:18 Hom 6 0.00 UTRECHT, Pays-Bas
7 113 VAN DER WEIJST ROBERT 01:44:39 Hom 7 0.00 EINDHOVEN, Pays-Bas
8 141 VERCOUTTER JONAS 01:45:20 Hom 8 0.00 WERVIK, Belgique
9 117 GILLING RORY 01:45:57 Hom 9 0.00 CIRENCESTER, Royaume-Uni
10 85 VAN LANDEGHEM HEDWIG 01:46:25 Hom 10 0.00 STEKENE, BELGIQUE
11 86 DE KERF DANIEL 01:46:34 Hom 11 0.00 Sint-Niklaas, Belgique
12 151 HAEGEMAN DAVID 01:46:37 Hom 12 0.00 BAVEGEM, Belgique
13 2136 BAKKER JOOST 01:46:45 Hom 13 0.00 Groningen, Pays-Bas
14 647 JENSEN ANDERS KROGH 01:46:54 Hom 14 0.00 BROVST, Danemark
15 199 WESTSTRATE ROEDI 01:47:10 Hom 15 0.00 s-Heer Arendskerke, Pays-Bas
16 349 VAN TONGEREN THIJS 01:47:19 Hom 16 0.00 DEN HAAG, Pays-Bas
17 8008 WEBB DAVID 01:47:41 Hom 17 0.00 GRENOBLE, France
18 8010 PERIER ALEXANDRE 01:47:45 Hom 18 0.00 SERRIERES, France
19 154 BORGERS JEROEN 01:47:59 Hom 19 0.00 GEEL, BELGIQUE
20 139 FELLER MICHAEL 01:49:47 Hom 20 0.00 ESCH SUR ALZETTE, Luxembourg
21 352 ROCHE ANDREW 01:50:49 Hom 21 0.00 RAMSEY, Royaume-Uni
22 137 ROBINSON ALISTAIR 01:51:48 Hom 22 0.00 PENRITH, Royaume-Uni
23 143 JANSEN RUBEN 01:52:01 Hom 23 0.00 DRONTEN, Pays-Bas
24 116 Henderson Jamie 01:52:26 Hom 24 0.00 GLENROTHES, France
25 2031 HIBERT MATTHIEU 01:52:35 Hom 25 0.00 ST MEDARD EN JALLES, France
26 88 STEGENGA TJEMME 01:52:46 Hom 26 0.00 AMERSFOORT, Pays-Bas
27 84 BEULLENS DIRK 01:53:48 Hom 27 0.00 herent, Belgique
28 150 TORN›E PAGH MORTEN 01:54:20 Hom 28 0.00 BAGSVAERD, DANEMARK
29 848 BOENNELYKKE LASSE HOLM 01:54:23 Hom 29 0.00 AALBORG, DANEMARK
30 115 LAVOCAT ALEXANDRE 01:54:31 Hom 30 0.00 FIRMINY, France
31 189 VERPOORT EDIAN 01:54:37 Hom 31 0.00 Eindhoven, Pays-Bas
32 8007 WILSON DANIEL 01:54:46 Hom 32 0.00 TORONTO, CANADA
33 149 LAUREYS STIJN 01:55:00 Hom 33 0.00 GRIMBERGEN, Belgique
34 129 DE WAELE FRANK 01:55:14 Hom 34 0.00 LOKEREN, Belgique
35 310 EDELENBOS ROLF 01:55:26 Hom 35 0.00 DRONTEN, Pays-Bas
36 161 MCGUINNESS GARETH 01:55:34 Hom 36 0.00 GWYNEDD, Royaume-Uni
37 317 RECKTENWALD JAN PHILIPP 01:55:46 Hom 37 0.00 ILLINGEN, Allemagne
38 114 Borghs Eric 01:56:02 Hom 38 0.00 GEEL, Belgique
39 480 VAN SUMMEREN FRANK 01:56:15 Hom 39 0.00 UDEN, Pays-bas
40 8029 ? ? 01:57:40 J 1 0.00 ,
41 112 DE NAYER JAN 01:57:47 Hom 40 0.00 BRECHT, BELGIQUE
42 8028 ? ? 01:57:50 J 2 0.00 ,
43 427 BARENDSE MAURICE 01:58:00 Hom 41 0.00 NAALDWIJK, Pays-Bas
44 121 SPENCE CHRISTIAN 01:58:02 Hom 42 0.00 ST HELIER, Royaume-Uni
45 474 LEHMANN MARTIN 01:58:06 Hom 43 0.00 AALBORG, DANEMARK
46 2143 DE WAELE GUY 01:58:08 Hom 44 0.00 LOKEREN, Belgique
47 391 TERMEER THIJS 01:58:14 Hom 45 0.00 WIERINGERWERF, Pays-bas
48 390 TERMEER REMI 01:58:44 Hom 46 0.00 WIERINGERWERF, Pays-Bas
49 520 NESCI DAVIDE 01:58:52 Hom 47 0.00 PREDAZZO, Italie
50 162 GUNS KRIS 01:58:55 Hom 48 0.00 SAI YING PUN, Hong-Kong
51 503 VAN HEUGTEN JONDALAR 01:59:21 Hom 49 0.00 WAGENINGEN, Pays-Bas
52 311 HUMPHRIES NEAL 01:59:22 Hom 50 0.00 BINFIELD, Royaume-Uni
53 379 GROOTVELD JORAM 01:59:29 Hom 51 0.00 DELFT, Pays-Bas
54 431 BARZILAIJ RONALD 01:59:44 Hom 52 0.00 VLAARDINGEN, Pays-Bas
55 407 KOCH EDWIN 02:00:11 Hom 53 0.00 THOLEY, ALLEMAGNE
56 8032 LAGARDE HENRI 02:00:37 Hom 54 0.00 CHAMROUSSE, FRANCE
57 120 PETERS JIM 02:00:43 Hom 55 0.00 Loughborough, Royaume-Uni
58 8018 FERRENT LAURE ANNE 02:00:45 Fe 1 0.00 La côte Saint André, France
59 176 VAN DER LINDEN DAVY 02:00:52 Hom 56 0.00 Merelbeke, Belgique
60 646 JAKOBSEN MARLENE 02:01:48 Fe 2 0.00 BROVST, Danemark
61 426 FRANSGAARD ANDERS CHRISTIAN 02:02:12 Hom 57 0.00 VIBORG, Danemark
62 535 JUANJO GARCIA 02:02:20 Hom 58 0.00 TERRASSA, ESPAGNE
63 335 ADRIAANS WILLEM 02:02:45 Hom 59 0.00 EINDHOVEN, Pays-Bas
64 425 VAN ERP TON 02:03:34 Hom 60 0.00 KESTEREN, Pays-Bas
65 126 VAN GELDEREN ELLO 02:04:33 Hom 61 0.00 Haarlem, Pays-Bas
66 131 ALBREKTSEN HENRIK 02:04:37 Hom 62 0.00 AALBORC, Danemark
67 145 RASK JESPER 02:05:00 Hom 63 0.00 KOLDING, DANEMARK
68 365 SMEDEGAARD MORTEN 02:05:05 Hom 64 0.00 ESBJERG N, Danemark
69 469 LARSEN THOMAS MULVAD 02:05:09 Hom 65 0.00 Aalborg, Danemark
70 8016 ARSENNE BENOIT 02:05:29 Hom 66 0.00 LA TRONCHE, France
71 402 ALLUYN KENNY 02:05:37 Hom 67 0.00 Oudenaarde, Belgique
72 102 MARTINSEN BO 02:05:37 Hom 68 0.00 ESBJERG, Danemark
73 355 RAVN NICOLAI 02:05:41 Hom 69 0.00 KOEGE, Danemark
74 587 VAN TUIJL TON 02:05:42 Hom 70 0.00 Geffen, Pays-Bas
75 104 CAREELMAN MICHAEL 02:05:59 Hom 71 0.00 KLUISBERGEN, Belgique
76 539 JEAN JOHN 02:06:12 Hom 72 0.00 MONTREAL, Canada
77 548 DEWALD THOMAS 02:06:21 Hom 73 0.00 WEISKIRCHEN, Allemagne
78 649 CHRISTENSEN JOHAN SKJOEDT 02:06:54 Hom 74 0.00 Randers, Danemark
79 125 BRANDSMA DOMIEN 02:07:14 Hom 75 0.00 DEVENTER, Pays-Bas
80 813 ? ? 02:07:18 J 3 0.00 ,
81 588 VISSERS ADRIE 02:07:39 Hom 76 0.00 Oss, Pays-Bas
82 106 TAGE NIELSEN 02:07:42 Hom 77 0.00 ISHOJ, Danemark
83 97 VAN DIJK MARINA 02:07:42 Fe 3 0.00 AMERSFOORT, Pays-Bas
84 168 PETERSEN TONNY 02:07:51 Hom 78 0.00 GLUMSOE, Danemark
85 565 PULVERTAFT ROBERT 02:07:57 Hom 79 0.00 Copenhagen N, Danemark
86 2021 VENDE FRANCK 02:07:59 Hom 80 0.00 ST MESMIN, France
87 608 DE BAKKER ROBERT 02:08:01 Hom 81 0.00 EINDHOVEN, Pays-Bas
88 8017 ATTIWELL PAUL 02:08:17 Hom 82 0.00 SWINDON, Royaume-Uni
89 430 DAMGAARD LARS 02:08:37 Hom 83 0.00 VESTERVIG, DANEMARK
90 134 DE JAEGER PETER 02:09:11 Hom 84 0.00 Avelgem, Belgique
91 103 SILVENNOINEN OLLI 02:09:12 Hom 85 0.00 VANTAA, Finlande
92 8012 BRUN BENJAMIN 02:09:16 Hom 86 0.00 CHAMPNIERS, FRANCE
93 400 BAKER ALEX 02:09:26 Hom 87 0.00 BARCELONA, ESPAGNE
94 124 JONGBLOED JORRIT 02:09:57 Hom 88 0.00 VLIJMEN, Pays-bas
95 8025 ? ? 02:10:07 J 4 0.00 ,
96 127 KEIJSERS MARK 02:10:35 Hom 89 0.00 UTRECHT, Pays-Bas
97 8031 LAVOCAT DANIEL 02:10:58 Hom 90 0.00 ST MAURICE EN GOURGOIS, France
98 302 WORN MIRKO 02:11:43 Hom 91 0.00 Kirchheim unter Teck, Allemagne
99 118 AVEN JESPER 02:11:45 Hom 92 0.00 VAXHOLM, Suède
100 133 MACHIELSEN JOHANNES 02:11:55 Hom 93 0.00 OIRSCHOT, Pays-Bas
101 423 VAN EIJK RUBEN 02:12:05 Hom 94 0.00 UTRECHT, Pays-Bas
102 582 COBBETT JULIUS 02:12:08 Hom 95 0.00 MERZHAUSEN, ALLEMAGNE
103 325 LANG CHRISTIAN 02:12:38 Hom 96 0.00 THOLEY, ALLEMAGNE
104 9 LAMONTAGNE PIERRE MARC 02:12:48 Hom 97 0.00 ST AUBIN, FRANCE
105 110 LARSEN CLAUS 02:12:58 Hom 98 0.00 BR_NSH_J, Danemark
106 146 SKOVMOSE HENRIK 02:13:02 Hom 99 0.00 HANSTHOLM, DANEMARK
107 8026 AKIO BERGHOLDT 02:13:12 Hom 100 0.00 COPENHAGEN S, Danemark
108 322 HECK DENNIS 02:13:30 Hom 101 0.00 EINDHOVEN, Pays-Bas
109 504 BORUP MICHAEL 02:13:45 Hom 102 0.00 RANDERS S, Danemark
110 197 SCHULLER CELINE 02:14:17 Fe 4 0.00 FROGES, FRANCE
111 91 MEIJER ESTHER 02:14:17 Fe 5 0.00 VEENENDAAL, Pays-Bas
112 138 VAN DEN BURG RONALD 02:14:22 Hom 103 0.00 NOORDWIJKERHOUT, Pays-bas
113 338 HEYMANS JAN 02:14:30 Hom 104 0.00 SINT NIKLAAS, BELGIQUE
114 500 GRIJPMA BART 02:14:41 Hom 105 0.00 ANGERLO, Pays-Bas
115 476 BERARD PIERRE 02:16:03 Hom 106 0.00 Lyon, FRANCE
116 387 DE GEETER AARON 02:16:33 Hom 107 0.00 AARDENBURG, Pays-Bas
117 354 PILKINGTON CHARLIE 02:18:03 Hom 108 0.00 Cirencester, Royaume-Uni
118 473 PRADY LOUIS 02:18:30 Hom 109 0.00 PARIS, France
119 148 BACCERINI LUIGI 02:18:33 Hom 110 0.00 Bangor, Royaume-Uni
120 181 THOREAU BRUNO 02:18:38 Hom 111 0.00 MONTREUIL BELLAY, FRANCE
121 408 BRON ROGIER 02:18:59 Hom 112 0.00 AMSTERDAM, Pays-Bas
122 353 VAN BURK HANS 02:19:09 Hom 113 0.00 ZUTPHEN, Pays-Bas
123 155 ROLLMANN PETER 02:19:28 Hom 114 0.00 ADENAU, Allemagne
124 8030 ANDERSEN STIG 02:20:02 Hom 115 0.00 SLAGELSE, Danemark
125 395 KELLY IAN 02:20:14 Hom 116 0.00 Isle Of Man, Royaume-Uni
126 411 VOERMANS MERIJN 02:20:33 Hom 117 0.00 AMSTERDAM, Pays-Bas
127 2134 KERBOF EPPE 02:21:17 Hom 118 0.00 Delft, Pays-Bas
128 445 MOSELEY PAULA 02:21:30 Fe 6 0.00 HEREFORD, Royaume-Uni
129 8011 NOBLE BRYAN 02:21:31 Hom 119 0.00 , FRANCE
130 342 VAN LOON BAS 02:21:41 Hom 120 0.00 EINDHOVEN, Pays-Bas
131 93 OVERBY LARS 02:21:43 Hom 121 0.00 AALBORG, DANEMARK
132 475 TAX JANNEKE 02:21:43 Fe 7 0.00 Nieuwegein, Pays-Bas
133 507 DE BOKX MARC 02:21:59 Hom 122 0.00 AMSTERDAM, Pays-Bas
134 2148 BIJVELD WOUTER 02:22:19 Hom 123 0.00 GEFFEN, Pays-Bas
135 8019 CHEVIGNON JULES 02:22:22 Hom 124 0.00 , FRANCE
136 579 MOIR CRAIG 02:22:28 Hom 125 0.00 JOHANNESBURG, AFRIQUE DU SUD
137 372 KNUDSEN HARALD 02:22:33 Hom 126 0.00 ESBJERG, Danemark
138 8015 COLLE THIERRY 02:22:35 Hom 127 0.00 PRECIEUX, France
139 174 GARETH COBB 02:22:42 Hom 128 0.00 POOLE, UK
140 8020 CHEVIGNON FRANCK 02:23:19 Hom 129 0.00 ST THEOFFREY, FRANCE
141 494 MCCRONE GLEN 02:23:24 Hom 130 0.00 BRADFORD, ONTARIO, CANADA
142 540 HEMMING JONATHAN 02:24:09 Hom 131 0.00 LONDON, Royaume-Uni
143 323 AUDENAERT DIDIER 02:24:39 Hom 132 0.00 SINT-GILLIS-WAAS, Belgique
144 136 WARE VICTORIA 02:25:13 Fe 8 0.00 PENRITH, Espagne
145 147 NIELSEN KLAUS 02:25:41 Hom 133 0.00 SNEDSTED, DANEMARK
146 163 CLIPSTON DAN 02:26:23 Hom 134 0.00 CAVERSHAM, Royaume-Uni
147 378 ALBERTSEN LARS 02:26:33 Hom 135 0.00 RANDERS SV, Danemark
148 340 TOLSMA MINZE 02:27:46 Hom 136 0.00 NIEUWEGEIN, Pays-Bas
149 362 FONS CARSTEN 02:27:48 Hom 137 0.00 ESBJERG, Danemark
150 95 VAN DEN BROEK RENE 02:28:04 Hom 138 0.00 CHAAM, Pays-Bas
151 601 DE BLOCK LUDWIG 02:28:29 Hom 139 0.00 Sint-gillis-waas, Belgique
152 2114 ARNOUTS JOHN 02:30:23 Hom 140 0.00 REET, Belgique
153 135 ARNOUTS DRIES 02:30:25 Hom 141 0.00 Reet, Belgique
154 707 MCDIARMID JAMES 02:30:34 Hom 142 0.00 CALLINGTON, Royaume-Uni
155 793 BUCHLI JAAP 02:30:51 Hom 143 0.00 SANTPOORT ZUID, Pays-bas
156 726 DRABOEL HENRIK 02:31:02 Hom 144 0.00 HELLERUP, Danemark
157 2129 WAGEMAKER ROBBERT 02:32:03 Hom 145 0.00 UTRECHT, Pays-Bas
158 2027 PRIMAULT JEAN MARC 02:32:28 Hom 146 0.00 BOURRON-MARLOTTE, FRANCE
159 171 LAGAEYSSE HANS 02:32:34 Hom 147 0.00 Russeignies (Mont de l Enclus), Belgique
160 578 RUBENSTEIN TERRY 02:33:01 Hom 148 0.00 EDENVALE, AFRIQUE DU SUD
161 581 CORREIA JOSE 02:33:01 Hom 149 0.00 BEDFORDVIEW GAUTENG, AFRIQUE DU SUD
162 109 LUND MICHAEL 02:34:04 Hom 150 0.00 KŸ_T _ô“€‘BENHAVN ô“€‹_, Danemark
163 383 BEZEMER JURN 02:34:34 Hom 151 0.00 DEN HOORN, Pays-Bas
164 2123 APICELLA FRANCOIS 02:35:36 Hom 152 0.00 GUYANCOURT, France
165 415 LACASSE STéPHANE 02:35:37 Hom 153 0.00 BOUCHERVILLE, CANADA
166 492 DUT ERWIN 02:35:47 Hom 154 0.00 HEEMSTEDE, Pays-Bas
167 166 HANSEN MICHAEL 02:35:56 Hom 155 0.00 KOEGE, Danemark
168 377 FAURHOLT JESPER 02:37:04 Hom 156 0.00 ESBJERG, Danemark
169 333 VAN DER MEULEN FRANK 02:37:23 Hom 157 0.00 HOORN NH, Pays-Bas
170 304 JENSEN HENRIK ABILD 02:37:24 Hom 158 0.00 VIBORG, Danemark
171 334 NIELSEN KJELD 02:37:27 Hom 159 0.00 Vejle, Danemark
172 385 VAN MAELE STEVEN 02:38:46 Hom 160 0.00 KOOLKERKE, Belgique
173 308 HEINHUIS EVERT 02:40:10 Hom 161 0.00 HAVELTE, Pays-Bas
174 52 JIMENEZ NOEL 02:40:13 Hom 162 0.00 CHAPONOST, France
175 345 BLACKMAN TOBY 02:40:33 Hom 163 0.00 NOTTINGHAM, Royaume-Uni
176 321 Christiansen Roland 02:40:35 Hom 164 0.00 Vejle Øst, Denmark
177 165 WEBER ROLAND 02:41:13 Hom 165 0.00 Traben-Trarbach, Allemagne
178 538 CONDAL JORDI 02:42:07 Hom 166 0.00 CALDES DE MONTBUI, ESPAGNE
179 358 SOHOLT SOREN 02:42:29 Hom 167 0.00 KALUNDBORG, DANEMARK
180 326 AUDENAERT SARAH 02:43:23 Fe 9 0.00 Sint-Niklaas, Belgique
181 418 MACNAUGHTON PETER 02:44:18 Hom 168 0.00 YELVERTON, Royaume-Uni
182 8021 LARSEN JOHNNY 02:45:49 Hom 169 0.00 ASNAES, Danemark
183 309 GOUGEON GILLES 02:46:10 Hom 170 0.00 LAVAL, Canada
184 2146 VAN DISSELDORP BJORN 02:47:32 Hom 171 0.00 BERGHEM, Pays-Bas
185 8027 RAVN PEER 02:50:51 Hom 172 0.00 SLAGELSE, Danemark
186 2087 ? ? 02:50:55 J 5 0.00 ,
187 812 ALBERT SERGE 02:51:17 Hom 173 0.00 LE PONT DE CLAIX, France
188 600 DE MAAT MARK 02:51:29 Hom 174 0.00 Moerbeke, Belgique
189 534 ROMERO RAMIREZ LUIS CARLOS 02:51:40 Hom 175 0.00 TERRASSA- BARCELONA, ESPAGNE
190 386 CHARBONNEAU MICHEL 02:53:02 Hom 176 0.00 LA PRAIRIE, CANADA
191 424 VAN EIJK CLEMENS 02:53:48 Hom 177 0.00 GOUDA, Pays-Bas
192 412 CLOUGH MIKE 02:53:51 Hom 178 0.00 Douglas, Royaume-Uni
193 403 POULSGAARD PETER 02:56:29 Hom 179 0.00 RøDBY, DANEMARK
194 718 FROELICH KATHRINE 02:59:20 Fe 10 0.00 GLUMSOE, Danemark
195 394 VEREECKEN LUDWIG 03:00:27 Hom 180 0.00 TEMSE, BELGIQUE
196 364 COLLETTE MARC 03:00:29 Hom 181 0.00 SALLANCHES, FRANCE
197 8022 MC KAY CHRISTINE 03:01:23 Fe 11 0.00 CONWAY, Royaume-Uni
198 318 BOYE RASMUS 03:01:47 Hom 182 0.00 BIRKER>D, DANEMARK
199 380 WINTHER HENRIK 03:04:19 Hom 183 0.00 ALLER›D, Danemark
200 314 CHRISTENSEN KIM FRANCK 03:05:41 Hom 184 0.00 VEJLE, Danemark
201 367 BUGNI PATRICK 03:06:22 Hom 185 0.00 FONTAINE, France
202 319 BOYE ANDERS 03:06:33 Hom 186 0.00 HUNDESTED, DANEMARK
203 2128 LEYDER PHILIPPE 03:10:37 Hom 187 0.00 WAVRE, BELGIQUE
204 524 CULHANE AIDAN 03:11:18 Hom 188 0.00 LONDON, Royaume-Uni
205 8023 DURUPT ANNE-LAURE 03:11:30 Fe 12 0.00 ST CHAMOND, France
206 580 BERTOLINO SALVATORE 03:26:36 Hom 189 0.00 BERKSHIRE, Royaume-Uni
207 8004 HAAN ROY 03:31:54 Hom 190 0.00 GENDT, Pays-Bas
208 491 WIND WALTER 03:31:56 Hom 191 0.00 RAALTE, Pays-Bas

La Bourgogne Cyclo

Après une saison 2020 très particulière et face à cette pandémie qui s'étire en longueur, nous avons dû nous adapter.

Ainsi, c'est avec beaucoup de regrets que nous vous annonçons que La Bourgogne Cyclo ne sera pas organisée en 2021.

Nous travaillons afin que vous puissiez relever le défi de manière alternative.

Nous vous tiendrons informés.
TOP